KE9LZ Weather Reports


time (UTC)temp
F
wind
direction
speed
knots
gust
knots
rain 1hr
in
rain 24hr
in
rain mn
in
humidity
%
barometer
mb
20260905060004 71 75 1.7 4.3 0.00 1.03 0.00 96 1018.2
20260905054003 71 38 2.6 5.2 0.00 1.03 0.00 96 1018.3
20260905053004 71 88 0.9 5.2 0.00 1.03 0.00 97 1018.2
20260905052004 72 28 1.7 4.3 0.00 1.03 0.00 97 1018.2
20260905050003 72 45 1.7 4.3 0.00 1.03 0.00 97 1018.2
20260905045004 72 41 1.7 2.6 0.00 1.03 1.03 96 1018.1
20260905044004 72 48 1.7 2.6 0.00 1.03 1.03 97 1018.3
20260905043003 72 37 2.6 4.3 0.00 1.04 1.03 97 1018.4
20260905042004 72 92 1.7 4.3 0.00 1.04 1.03 96 1018.1
20260905041004 72 81 1.7 4.3 0.00 1.04 1.03 96 1018.3
20260905040004 72 35 1.7 4.3 0.00 1.04 1.03 96 1018.2
20260905034004 72 67 1.7 2.6 0.00 1.04 1.03 96 1018.3
20260905033003 72 37 0.9 2.6 0.00 1.04 1.03 97 1018.1
20260905031004 72 96 1.7 4.3 0.00 1.05 1.03 96 1018.3
20260905024004 73 76 2.6 4.3 0.00 1.10 1.03 96 1017.8
20260905023004 73 61 1.7 4.3 0.00 1.11 1.03 95 1018.1
20260905022004 73 34 2.6 4.3 0.00 1.12 1.03 95 1018.0
20260905021004 73 81 1.7 5.2 0.00 1.12 1.03 95 1017.9
20260905020004 73 70 1.7 4.3 0.00 1.12 1.03 95 1018.0
20260905014004 73 63 1.7 4.3 0.00 1.12 1.03 95 1017.9
20260905013004 73 50 0.9 1.7 0.00 1.12 1.03 95 1017.7
20260905012004 73 65 0.9 2.6 0.00 1.12 1.03 95 1017.7
20260905011003 73 84 0.9 2.6 0.00 1.12 1.03 95 1017.6
20260905010004 73 74 0.9 1.7 0.00 1.12 1.03 94 1017.5
20260905004003 73 64 1.7 2.6 0.00 1.12 1.03 94 1017.5
20260905003003 73 73 2.6 4.3 0.00 1.12 1.03 94 1017.5
20260905000004 74 86 2.6 6.1 0.00 1.12 1.03 92 1017.4
20260904235004 74 88 1.7 4.3 0.00 1.12 1.03 92 1017.4
20260904234004 74 113 1.7 7.0 0.00 1.12 1.03 92 1017.3
20260904233004 74 77 4.3 7.0 0.00 1.12 1.03 91 1017.1
20260904232004 75 108 1.7 8.7 0.00 1.12 1.03 90 1017.2
20260904231004 75 88 1.7 6.1 0.00 1.12 1.03 89 1017.1
20260904230004 75 84 1.7 4.3 0.00 1.12 1.03 88 1017.0
20260904225003 76 89 1.7 7.0 0.00 1.12 1.03 88 1016.9
20260904223003 76 75 1.7 5.2 0.00 1.12 1.03 87 1016.4
20260904222004 77 95 2.6 6.1 0.00 1.12 1.03 88 1016.5
20260904221003 77 93 2.6 6.1 0.00 1.12 1.03 88 1016.3
20260904220004 77 105 0.9 5.2 0.00 1.12 1.03 88 1016.2
20260904215004 78 62 1.7 4.3 0.00 1.12 1.03 87 1016.3
20260904214004 78 13 2.6 6.1 0.00 1.12 1.03 88 1016.3
20260904213004 78 19 2.6 6.1 0.00 1.12 1.03 87 1015.9
20260904211003 79 23 2.6 6.1 0.00 1.12 1.03 86 1015.8
20260904210004 79 11 3.5 6.1 0.00 1.12 1.03 84 1015.8
20260904205003 80 19 1.7 6.1 0.00 1.12 1.03 83 1015.7
20260904204003 81 70 1.7 7.0 0.00 1.12 1.03 82 1015.8
20260904203004 82 46 1.7 2.6 0.00 1.12 1.03 80 1015.6
20260904202003 83 1 0.9 5.2 0.00 1.12 1.03 79 1015.8
20260904201003 84 291 0.9 2.6 0.00 1.12 1.03 77 1015.7
20260904200004 84 264 1.7 2.6 0.00 1.12 1.03 76 1015.7
20260904195004 83 338 0.9 4.3 0.00 1.12 1.03 78 1016.0
20260904192004 83 191 1.7 4.3 0.00 1.12 1.03 78 1016.2
20260904191004 82 190 2.6 5.2 0.00 1.12 1.03 78 1016.2
20260904190004 83 202 0.9 8.7 0.00 1.12 1.03 77 1016.3
20260904183003 81 210 3.5 5.2 0.00 1.12 1.03 80 1016.3
20260904182004 80 208 4.3 7.8 0.00 1.12 1.03 82 1016.5
20260904181003 80 162 2.6 6.1 0.00 1.12 1.03 81 1016.5
20260904180004 81 243 3.5 6.1 0.00 1.12 1.03 80 1016.3
20260904175004 80 240 4.3 7.8 0.00 1.12 1.03 81 1016.5
20260904173004 79 186 4.3 7.8 0.00 1.12 1.03 82 1016.6
20260904172004 78 247 1.7 7.0 0.00 1.12 1.03 83 1016.9
20260904171004 78 264 3.5 7.8 0.00 1.12 1.03 83 1016.9
20260904170003 78 271 2.6 5.2 0.00 1.12 1.03 85 1016.9
20260904164004 76 121 1.7 5.2 0.00 1.12 1.03 86 1016.8
20260904162003 75 205 0.9 5.2 0.00 1.12 1.03 88 1017.1
20260904161004 74 207 2.6 4.3 0.00 1.12 1.03 88 1016.9
20260904160003 74 200 2.6 4.3 0.00 1.12 1.03 89 1017.1
20260904155004 74 195 2.6 6.1 0.00 1.15 1.03 89 1016.9
20260904154004 72 178 3.5 7.0 0.00 1.34 1.03 92 1017.2
20260904153004 72 181 1.7 6.1 0.00 1.39 1.03 93 1017.0
20260904152004 71 191 2.6 7.8 0.00 1.39 1.03 94 1017.1
20260904151004 71 121 1.7 4.3 0.00 1.43 1.03 95 1017.2
20260904150003 70 155 2.6 6.1 0.00 1.53 1.03 96 1017.1
20260904145003 70 163 1.7 6.1 0.00 1.59 1.03 98 1017.1
20260904144004 69 185 3.5 5.2 0.00 1.59 1.03 99 1017.4
20260904143004 69 183 1.7 6.1 0.00 1.59 1.03 99 1017.2
20260904142004 68 203 1.7 5.2 0.00 1.59 1.03 99 1017.3
20260904140004 68 303 1.7 2.6 0.00 1.59 1.03 99 1016.9
20260904135003 68 280 0.9 4.3 0.00 1.59 1.03 99 1016.5
20260904134004 68 177 1.7 7.0 0.00 1.59 1.03 99 1017.0
20260904133003 68 182 2.6 10.4 0.00 1.59 1.03 99 1017.5
20260904132004 68 182 2.6 7.0 0.00 1.59 1.03 99 1017.7
20260904131004 68 177 1.7 6.1 0.00 1.59 1.03 99 1017.5
20260904130004 68 197 1.7 6.1 0.00 1.59 1.03 99 1017.6
20260904125003 68 208 2.6 11.3 0.00 1.59 1.03 99 1017.3
20260904124004 68 173 2.6 5.2 0.00 1.59 1.03 99 1017.0
20260904123004 68 149 3.5 8.7 0.00 1.59 1.03 99 1016.7
20260904122004 67 174 3.5 6.1 0.01 1.59 1.03 99 1016.6
20260904121004 68 166 4.3 7.8 0.01 1.59 1.03 99 1016.7
20260904120004 68 134 3.5 7.0 0.02 1.59 1.03 99 1017.1
20260904115004 68 171 3.5 7.8 0.07 1.59 1.03 99 1016.9
20260904114004 68 177 3.5 8.7 0.21 1.59 1.03 99 1016.3
20260904113004 68 127 3.5 6.1 0.39 1.59 1.02 99 1016.5
20260904112004 68 152 4.3 12.2 0.39 1.59 1.02 99 1017.1
20260904111004 68 169 3.5 7.0 0.39 1.58 1.02 99 1016.9
20260904110005 69 122 2.6 5.2 0.47 1.58 1.01 99 1017.0
20260904105003 69 129 1.7 6.1 0.45 1.52 0.95 99 1016.8
20260904104005 69 178 1.7 6.1 0.39 1.39 0.82 99 1017.3
20260904102004 69 202 1.7 6.1 0.29 1.20 0.63 99 1016.9
20260904101004 69 149 2.6 5.2 0.31 1.19 0.63 99 1016.2
20260904100004 69 109 0.9 2.6 0.27 1.11 0.54 99 1016.9
20260904094004 69 205 1.7 4.3 0.22 1.00 0.43 99 1017.4
20260904093004 69 313 0.9 5.2 0.17 0.92 0.35 99 1017.8
20260904091004 69 59 0.9 1.7 0.13 0.88 0.31 99 1017.0
20260904090004 69 90 1.7 2.6 0.09 0.84 0.28 99 1017.2
20260904085004 69 99 1.7 4.3 0.07 0.82 0.25 99 1016.9
20260904084004 69 75 0.9 2.6 0.04 0.78 0.22 99 1017.5
20260904083003 69 6 1.7 4.3 0.01 0.75 0.18 99 1017.4
20260904082004 69 34 1.7 2.6 0.02 0.75 0.18 99 1017.3
20260904081003 69 24 1.7 4.3 0.02 0.75 0.18 99 1016.3
20260904080004 69 52 1.7 2.6 0.04 0.75 0.18 99 1015.8
20260904075004 69 71 0.9 4.3 0.18 0.75 0.18 99 1015.5
20260904074004 69 39 1.7 2.6 0.18 0.74 0.18 99 1015.6
20260904073004 69 103 1.7 4.3 0.17 0.74 0.17 99 1017.0
20260904072004 69 12 0.9 4.3 0.17 0.73 0.17 99 1017.2
20260904071004 69 20 2.6 8.7 0.16 0.72 0.16 99 1016.9
20260904070004 69 333 4.3 8.7 0.14 0.71 0.14 99 1017.2
20260904065004 69 296 3.5 7.0 0.00 0.57 0.00 99 1017.0
20260904064005 69 320 1.7 2.6 0.00 0.57 0.00 99 1016.5
20260904063004 69 88 1.7 2.6 0.00 0.57 0.00 99 1015.8
20260904062004 69 260 0.9 2.6 0.00 0.57 0.00 99 1016.2